Weather History for KSGF - March, 2013

Change the Weather History Date:

Sunday, March 10, 2013

  Actual Average Record
Temperature  
Mean Temperature 44 °F 44 °F  
Max Temperature 57 °F 56 °F 80 °F (1955)
Min Temperature 31 °F 34 °F 5 °F (1948)
Degree Days  
Heating Degree Days 21 21  
Month to date heating degree days 242 219  
Since 1 July heating degree days 3540 3812  
Cooling Degree Days 0 0  
Month to date cooling degree days 0 0  
Year to date cooling degree days 0 0  
Moisture  
Dew Point 44 °F    
Average Humidity 86    
Maximum Humidity 100    
Minimum Humidity 72    
Precipitation  
Precipitation 0.94 in 0.11 in 2.73 in (1974)
Month to date precipitation 1.71 1.08  
Year to date precipitation 7.05 6.07  
Snow  
Snow 0.00 in - - ()
Month to date snowfall T  
Since 1 July snowfall 7.0  
Snow Depth 0.00 in    
Sea Level Pressure  
Sea Level Pressure 29.72 in    
Wind  
Wind Speed 14 mph (SSW)    
Max Wind Speed 28 mph    
Max Gust Speed 33 mph    
Visibility 8 miles    
Events Rain    
T = Trace of Precipitation, MM = Missing Value Source: NWS Daily Summary

Daily Weather History Graph

Daily Weather History Graph

Search for Another Location

Airport or City:

Trip Planner

Search our weather history database for the weather conditions in past years. The results will help you decide how hot, cold, wet, or windy it might be!

Date:

Astronomy

Mar. 10, 2013 Rise Set
Actual Time 7:31 AM CDT 7:16 PM CDT
Civil Twilight 7:05 AM CDT 7:42 PM CDT
Nautical Twilight 6:35 AM CDT 8:12 PM CDT
Astronomical Twilight 6:05 AM CDT 8:43 PM CDT
Moon 6:31 AM CDT (3/10) 6:25 PM CDT (3/10)
Length of Visible Light 12h 36m
Length of Day
11h 44m
Waning Crescent, 2% of the Moon is Illuminated
Mar 10
Waning Crescent
Mar 11
New
Mar 19
First Quarter
Mar 27
Full
Apr 2
Last Quarter

Hourly Weather History & Observations

Time (CDT) Temp. Windchill Dew Point Humidity Pressure Visibility Wind Dir Wind Speed Gust Speed Precip Events Conditions
12:52 AM 57.0 °F - 55.0 °F 93% 29.65 in 6.0 mi SE 18.4 mph 24.2 mph 0.11 in Rain Light Rain
1:42 AM 57.0 °F - 55.0 °F 93% 29.70 in 10.0 mi South 18.4 mph - 0.01 in   Overcast
1:52 AM 57.0 °F - 55.0 °F 93% 29.68 in 10.0 mi South 17.3 mph - 0.01 in   Overcast
3:04 AM 57.0 °F - 55.0 °F 93% 29.68 in 10.0 mi SSE 18.4 mph 26.5 mph N/A   Overcast
3:12 AM 57.0 °F - 55.0 °F 93% 29.68 in 10.0 mi SSE 18.4 mph - N/A   Overcast
3:36 AM 57.2 °F - 55.4 °F 94% 29.66 in 10.0 mi SSE 15.0 mph - N/A Rain Light Rain
3:52 AM 57.0 °F - 55.0 °F 93% 29.63 in 10.0 mi SSE 16.1 mph - 0.00 in   Overcast
4:52 AM 55.9 °F - 53.1 °F 90% 29.65 in 10.0 mi South 18.4 mph - 0.00 in Rain Light Rain
5:52 AM 54.0 °F - 51.1 °F 90% 29.68 in 10.0 mi South 8.1 mph - 0.02 in Rain Light Rain
6:52 AM 52.0 °F - 48.0 °F 86% 29.74 in 7.0 mi WSW 16.1 mph - 0.06 in Rain Rain
7:52 AM 50.0 °F - 48.0 °F 93% 29.70 in 9.0 mi SSE 4.6 mph - 0.20 in Rain Rain
8:52 AM 48.9 °F - 48.0 °F 97% 29.73 in 8.0 mi South 6.9 mph - 0.10 in Rain Light Rain
9:52 AM 48.9 °F - 46.9 °F 93% 29.68 in 5.0 mi ESE 9.2 mph - 0.19 in Rain Rain
10:52 AM 48.9 °F - 46.9 °F 93% 29.70 in 10.0 mi SSE 8.1 mph - 0.08 in Rain Light Rain
11:19 AM 48.0 °F - 46.9 °F 96% 29.70 in 6.0 mi SE 9.2 mph - 0.04 in Rain Rain
11:30 AM 48.0 °F - 46.9 °F 96% 29.66 in 7.0 mi SSE 4.6 mph - 0.06 in Rain Rain
11:37 AM 48.0 °F - 46.9 °F 96% 29.67 in 7.0 mi SSE 4.6 mph - 0.07 in Rain Light Rain
11:52 AM 48.9 °F - 46.9 °F 93% 29.66 in 10.0 mi SE 9.2 mph - 0.07 in   Overcast
11:59 AM 48.9 °F - 46.9 °F 93% 29.69 in 10.0 mi SSE 11.5 mph - N/A   Overcast
12:11 PM 48.9 °F - 46.9 °F 93% 29.67 in 10.0 mi SE 12.7 mph - N/A   Overcast
12:34 PM 48.9 °F - 48.0 °F 97% 29.67 in 10.0 mi South 8.1 mph - N/A   Overcast
12:52 PM 50.0 °F - 48.0 °F 93% 29.67 in 10.0 mi South 12.7 mph - N/A   Mostly Cloudy
12:59 PM 52.0 °F - 48.9 °F 89% 29.66 in 10.0 mi South 10.4 mph - N/A   Mostly Cloudy
1:15 PM 53.1 °F - 48.9 °F 86% 29.67 in 10.0 mi South 18.4 mph - N/A   Mostly Cloudy
1:35 PM 54.0 °F - 48.0 °F 80% 29.66 in 10.0 mi South 15.0 mph - N/A   Scattered Clouds
1:52 PM 55.0 °F - 48.9 °F 80% 29.64 in 10.0 mi SSW 16.1 mph - N/A   Mostly Cloudy
2:14 PM 55.9 °F - 48.9 °F 77% 29.64 in 10.0 mi SSW 12.7 mph - N/A   Mostly Cloudy
2:52 PM 55.9 °F - 46.9 °F 72% 29.62 in 10.0 mi South 13.8 mph - N/A   Mostly Cloudy
3:07 PM 50.0 °F - 46.0 °F 86% 29.66 in 2.5 mi West 21.9 mph 33.4 mph 0.00 in Rain Heavy Rain
3:13 PM 48.0 °F - 45.0 °F 89% 29.67 in 1.2 mi West 16.1 mph 33.4 mph 0.09 in Rain Heavy Rain
3:18 PM 48.0 °F - 45.0 °F 89% 29.67 in 2.0 mi West 17.3 mph 23.0 mph 0.10 in Rain Rain
3:20 PM 48.0 °F - 45.0 °F 89% 29.68 in 3.0 mi West 20.7 mph - 0.10 in Rain Rain
3:27 PM 46.9 °F - 45.0 °F 93% 29.68 in 4.0 mi West 17.3 mph 26.5 mph 0.11 in Rain Light Rain
3:38 PM 46.9 °F - 44.1 °F 90% 29.69 in 7.0 mi West 16.1 mph 26.5 mph 0.11 in Rain Light Rain
3:52 PM 46.0 °F 38.5 °F 44.1 °F 93% 29.70 in 8.0 mi West 19.6 mph 26.5 mph 0.11 in Rain Light Rain
4:01 PM 46.0 °F 38.5 °F 43.0 °F 89% 29.70 in 10.0 mi West 19.6 mph 26.5 mph 0.00 in Rain Light Rain
4:52 PM 44.1 °F 36.2 °F 41.0 °F 89% 29.73 in 10.0 mi West 18.4 mph 25.3 mph 0.00 in   Overcast
5:09 PM 42.1 °F 34.5 °F 41.0 °F 96% 29.74 in 4.0 mi WSW 15.0 mph - N/A   Overcast
5:38 PM 42.1 °F 34.5 °F 39.0 °F 89% 29.75 in 9.0 mi West 15.0 mph 26.5 mph N/A   Overcast
5:52 PM 41.0 °F 31.6 °F 39.0 °F 93% 29.76 in 10.0 mi West 20.7 mph 27.6 mph N/A   Overcast
6:48 PM 37.4 °F 27.5 °F 35.6 °F 93% 29.78 in 5.0 mi WNW 18.4 mph 28.8 mph 0.00 in Rain Light Rain
6:52 PM 37.9 °F 28.5 °F 36.0 °F 93% 29.79 in 6.0 mi West 17.3 mph 28.8 mph 0.00 in Rain Light Rain
7:04 PM 37.9 °F 29.2 °F 36.0 °F 93% 29.79 in 10.0 mi West 15.0 mph - 0.00 in   Overcast
7:52 PM 36.0 °F 25.6 °F 34.0 °F 93% 29.83 in 10.0 mi West 18.4 mph 23.0 mph 0.00 in   Overcast
8:52 PM 34.0 °F 24.2 °F 32.0 °F 92% 29.86 in 6.0 mi West 15.0 mph - 0.00 in   Overcast
9:52 PM 33.1 °F 24.4 °F 30.9 °F 92% 29.88 in 6.0 mi West 11.5 mph - 0.00 in Rain Light Rain
10:52 PM 32.0 °F 21.6 °F 30.2 °F 93% 29.87 in 8.0 mi WNW 15.0 mph - N/A   Overcast
11:52 PM 30.9 °F 19.1 °F 28.9 °F 92% 29.89 in 9.0 mi West 18.4 mph - N/A   Overcast
12:35 AM 30.9 °F 21.7 °F 28.9 °F 92% 29.86 in 6.0 mi West 11.5 mph - 0.00 in Rain Light Freezing Rain
12:52 AM 30.9 °F 20.7 °F 28.9 °F 92% 29.88 in 9.0 mi West 13.8 mph - 0.00 in   Overcast